Westerly, RI

2:38 AM EST on November 20, 2019 (GMT -0500)
Westerly State

Weather History for KWST - October, 2019

Change the Weather History Date:

Monday, October 21, 2019

  Actual Average (WUND) Record (WUND)
Temperature  
Mean Temperature 60 °F -  
Max Temperature 70 °F - - (-1)
Min Temperature 51 °F - - (-1)
Degree Days  
Heating Degree Days 4    
Growing Degree Days 10 (Base 50)    
Moisture  
Dew Point 50 °F    
Average Humidity 76    
Maximum Humidity 94    
Minimum Humidity 42    
Precipitation  
Precipitation 0.04 in - - ()
Sea Level Pressure  
Sea Level Pressure 30.05 in    
Wind  
Wind Speed 7 mph ()    
Max Wind Speed 14 mph    
Max Gust Speed 22 mph    
Visibility 9.9 miles    
Events Rain    
Averages and records for this station are not official NWS values.
T = Trace of Precipitation, MM = Missing Value Source: Averaged Metar Reports

Daily Weather History Graph

Daily Weather History Graph

Search for Another Location

Airport or City:

Astronomy

Oct. 21, 2019 Rise Set
Actual Time 7:05 AM EDT 5:57 PM EDT
Civil Twilight 6:37 AM EDT 6:25 PM EDT
Nautical Twilight 6:05 AM EDT 6:57 PM EDT
Astronomical Twilight 5:33 AM EDT 7:29 PM EDT
Moon No Moon Rise 2:23 PM EDT (10/21)
Length of Visible Light 11h 48m
Length of Day
10h 52m
Waning Gibbous, 48% of the Moon is Illuminated
Oct 21
Waning Gibbous
Oct 27
New
Nov 4
First Quarter
Nov 12
Full
Nov 19
Last Quarter

Hourly Weather History & Observations

Time (EDT) Temp. Dew Point Humidity Pressure Visibility Wind Dir Wind Speed Gust Speed Precip Events Conditions
12:53 AM 55.0 °F 53.1 °F 93% 30.00 in 8.0 mi NE 5.8 mph - 0.03 in Rain Light Rain
1:44 AM 55.0 °F 53.1 °F 93% 30.00 in 10.0 mi North 6.9 mph - 0.00 in   Overcast
1:53 AM 55.0 °F 53.1 °F 93% 29.99 in 10.0 mi NNE 6.9 mph - 0.00 in   Overcast
2:53 AM 54.0 °F 52.0 °F 93% 29.98 in 10.0 mi NE 5.8 mph - 0.01 in Rain Light Rain
3:12 AM 54.0 °F 52.0 °F 93% 29.99 in 10.0 mi North 6.9 mph - 0.00 in   Scattered Clouds
3:48 AM 53.6 °F 51.8 °F 94% 29.98 in 10.0 mi North 6.9 mph - 0.00 in   Mostly Cloudy
3:53 AM 54.0 °F 52.0 °F 93% 29.98 in 10.0 mi NNE 6.9 mph - 0.00 in   Mostly Cloudy
4:53 AM 55.0 °F 52.0 °F 89% 30.00 in 10.0 mi North 6.9 mph - N/A   Overcast
5:53 AM 55.0 °F 52.0 °F 89% 30.01 in 10.0 mi NNE 8.1 mph - N/A   Overcast
6:53 AM 55.0 °F 51.1 °F 86% 30.02 in 10.0 mi NNE 6.9 mph - N/A   Mostly Cloudy
7:44 AM 55.0 °F 52.0 °F 89% 30.04 in 10.0 mi NNE 9.2 mph - N/A   Overcast
7:53 AM 55.0 °F 52.0 °F 89% 30.04 in 10.0 mi NNE 11.5 mph 18.4 mph N/A   Overcast
8:14 AM 55.9 °F 53.1 °F 90% 30.04 in 10.0 mi NNE 8.1 mph - N/A   Overcast
8:27 AM 57.0 °F 53.1 °F 87% 30.04 in 10.0 mi NNE 8.1 mph - N/A   Overcast
8:53 AM 57.9 °F 53.1 °F 84% 30.04 in 10.0 mi NNE 10.4 mph 18.4 mph N/A   Mostly Cloudy
9:53 AM 60.1 °F 53.1 °F 78% 30.04 in 10.0 mi NNE 10.4 mph 21.9 mph N/A   Mostly Cloudy
10:44 AM 61.0 °F 52.0 °F 72% 30.05 in 10.0 mi NE 10.4 mph 19.6 mph N/A   Scattered Clouds
10:53 AM 62.1 °F 52.0 °F 70% 30.05 in 10.0 mi North 13.8 mph 19.6 mph N/A   Partly Cloudy
11:53 AM 64.0 °F 52.0 °F 65% 30.05 in 10.0 mi NNE 11.5 mph 19.6 mph N/A   Clear
12:53 PM 68.0 °F 50.0 °F 52% 30.06 in 10.0 mi North 11.5 mph 20.7 mph N/A   Partly Cloudy
1:53 PM 69.1 °F 46.0 °F 44% 30.05 in 10.0 mi NNE 8.1 mph 18.4 mph N/A   Clear
2:53 PM 69.1 °F 45.0 °F 42% 30.05 in 10.0 mi NNE 12.7 mph 16.1 mph N/A   Clear
3:53 PM 68.0 °F 45.0 °F 43% 30.06 in 10.0 mi NE 9.2 mph - N/A   Clear
4:53 PM 66.9 °F 44.1 °F 44% 30.09 in 10.0 mi NNE 6.9 mph - N/A   Clear
5:53 PM 63.0 °F 44.1 °F 50% 30.10 in 10.0 mi NE 4.6 mph - N/A   Clear
6:53 PM 59.0 °F 45.0 °F 60% 30.12 in 10.0 mi NE 3.5 mph - N/A   Clear
7:53 PM 55.9 °F 46.0 °F 69% 30.12 in 10.0 mi NE 5.8 mph - N/A   Clear
8:53 PM 54.0 °F 46.0 °F 75% 30.13 in 10.0 mi NE 6.9 mph - N/A   Clear
9:53 PM 53.1 °F 46.0 °F 77% 30.15 in 10.0 mi NE 4.6 mph - N/A   Clear
10:53 PM 52.0 °F 46.0 °F 80% 30.14 in 10.0 mi NE 3.5 mph - N/A   Clear
11:53 PM 51.1 °F 46.9 °F 86% 30.13 in 10.0 mi NE 5.8 mph - N/A   Clear